Regional Weather Roundup
Issued by NWS

Home | Current Version | Previous Version | Graphics & Text | Print | Product List | Glossary Off
Versions: 1 2 3 4 5 6 7 8 9 10 11 12 13 14 15 16 17 18 19 20 21 22 23 24 25 26 27 28 29 30 31 32 33 34 35 36 37 38 39 40 41 42 43 44 45 46 47 48 49 50

000
ASUS43 KDMX 220506
RWRIA

WEATHER ROUNDUP FOR IOWA
NATIONAL WEATHER SERVICE DES MOINES IA
1200 AM CDT THU JUN 22 2017

NOTE: "FAIR" INDICATES FEW OR NO CLOUDS BELOW 12,000 FEET WITH NO
SIGNIFICANT WEATHER AND/OR OBSTRUCTIONS TO VISIBILITY.

* - THESE STATIONS ARE NOT NWS STATIONS...THUS NOT UNDER NWS
QUALITY CONTROL.  THEY ALSO DO NOT REPORT WEATHER SUCH
AS PRECIPITATION OR FOG.

IAZ001>003-012>014-020>022-031>034-043>046-220600-
   NORTHWEST IOWA

CITY           SKY/WX    TMP DP  RH WIND       PRES   REMARKS
CARROLL *      CLOUDY    79  63  57 S20G28    29.71S HX  80
CHEROKEE *     PTCLDY    75  68  78 S8        29.67S
DENISON *      PTCLDY    79  61  53 S16       29.72S HX  80
LE MARS *      PTCLDY    82  66  57 S15       29.63F HX  85
ORANGE CITY *  PTCLDY    79  68  69 S6        29.65S HX  81
SHELDON *      CLOUDY    75  70  83 E8        29.66R
SIOUX CITY     MOCLDY    84  62  47 S14G23    29.64S HX  85
SPENCER        CLOUDY    77  67  71 E3        29.67R
STORM LAKE *   CLOUDY    79  61  53 S13G22    29.69R HX  80
$$

IAZ055>058-069>071-079>083-090>094-220600-
   SOUTHWEST IOWA

CITY           SKY/WX    TMP DP  RH WIND       PRES   REMARKS
ATLANTIC *     CLEAR     79  63  57 S16G22    29.75R HX  80
AUDUBON *      CLOUDY    79  63  57 S14G22    29.76R HX  80
CLARINDA *     CLEAR     75  64  69 S10       29.80R
COUNCIL BLFS * CLEAR     81  63  54 S16       29.74R HX  82
CRESTON *      CLEAR     73  64  73 S10       29.82R
HARLAN  *      PTCLDY    79  63  57 S13G21    29.77R HX  80
LAMONI         CLEAR     76  66  71 S9        29.81R
RED OAK *      CLEAR     79  63  57 S14G20    29.76R HX  80
SHENANDOAH *   CLEAR     81  63  54 S14G20    29.77R HX  82
$$

IAZ047>049-059>061-072>074-084-220600-
   CENTRAL IOWA

CITY           SKY/WX    TMP DP  RH WIND       PRES   REMARKS
AMES           PTCLDY    80  64  58 S14       29.75R HX  82
ANKENY *       CLEAR     79  64  61 S14G20    29.77R HX  81
BOONE *        PTCLDY    81  63  54 S15G23    29.74S HX  82
CHARITON *     CLEAR     77  64  65 S9        29.81R
DES MOINES     CLEAR     78  65  63 S12       29.77R HX  80
GRINNELL*      CLEAR     76  65  70 S10       29.81R
KNOXVILLE *    CLEAR     75  64  69 S9        29.79R
MARSHALLTOWN   CLEAR     77  67  71 S15       29.76R
NEWTON *       CLEAR     75  66  73 S10       29.80R
PELLA *        CLEAR     75  64  67 S6        29.81R
PERRY *        CLOUDY    78  60  55 S14       29.74S
$$

IAZ004>006-015-016-023>025-035-036-220600-
   NORTH CENTRAL IOWA

CITY           SKY/WX    TMP DP  RH WIND       PRES   REMARKS
ALGONA *       CLOUDY    75  72  88 S12       29.69F
CLARION *        N/A     75  68  78 S14       29.71F
ESTHERVILLE    CLOUDY    74  70  87 S13       29.66R THUNDER
FORT DODGE *   CLOUDY    81  61  50 S17G23    29.71F HX  81
MASON CITY     CLOUDY    72  69  90 S10       29.73F
FOREST CITY *    N/A     72  64  78 S9        29.70F
WEBSTER CITY * CLOUDY    81  63  54 S15G23    29.69F HX  82
IOWA FALLS *     N/A     76  67  76 S10       29.75F
$$

IAZ007>011-017>019-026>030-037>042-050>054-066-220600-
   NORTHEAST IOWA

CITY           SKY/WX    TMP DP  RH WIND       PRES   REMARKS
CEDAR RAPIDS   CLEAR     73  71  93 S8        29.80R
CHARLES CITY * CLEAR     72  72 100 S12       29.74F
CLINTON *      CLOUDY    77  69  76 SW12      29.82S
DECORAH *      MOCLDY    68  64  88 S7G16     29.75F
DUBUQUE        CLOUDY    70  66  87 S9        29.82S
MONTICELLO *   PTCLDY    77  70  78 S14       29.80S
OELWEIN *      CLOUDY    73  70  88 S15       29.78F
WATERLOO       CLOUDY    74  68  81 S16G23    29.75S
$$

IAZ064-065-067-068-078-220600-
   EAST CENTRAL IOWA

CITY           SKY/WX    TMP DP  RH WIND       PRES   REMARKS
DAVENPORT      MOCLDY    78  67  68 S13       29.83S HX  80
IOWA CITY      CLEAR     75  70  84 S9        29.82S
MT. PLEASANT * PTCLDY    75  65  72 S6        29.83R
MUSCATINE *    CLOUDY    73  70  88 S5        29.83S
QUAD CITIES    CLOUDY    80  67  64 S6        29.82S HX  82
$$

IAZ062-063-075>077-085>089-095>099-220600-
   SOUTHEAST IOWA

CITY           SKY/WX    TMP DP  RH WIND       PRES   REMARKS
BURLINGTON     PTCLDY    77  68  73 S9        29.84S
FAIRFIELD *    CLEAR     77  64  65 S9        29.82R
FORT MADISON * MOCLDY    81  66  61 S8        29.85R HX  83
KEOKUK *       CLEAR     79  66  65 S7        29.84S HX  81
OSKALOOSA *      N/A     71  65  83 S6        29.82R
CENTERVILLE *    N/A     77  64  65 S10       29.84R
OTTUMWA        CLEAR     75  67  76 S7        29.81R
$$

ABBREVIATIONS USED IN REMARKS
   TC - TEMPERATURES IN CELSIUS
  WCI - WIND CHILL INDEX
   HX - HEAT INDEX
  VSB - VISIBILITY
$$





USA.gov is the U.S. government's official web portal to all federal, state and local government web resources and services.